PST,Max TemperatureF,Mean TemperatureF,Min TemperatureF,Max Dew PointF,MeanDew PointF,Min DewpointF,Max Humidity, Mean Humidity, Min Humidity, Max Sea Level PressureIn, Mean Sea Level PressureIn, Min Sea Level PressureIn, Max VisibilityMiles, Mean VisibilityMiles, Min VisibilityMiles, Max Wind SpeedMPH, Mean Wind SpeedMPH, Max Gust SpeedMPH,PrecipitationIn, CloudCover, Events, WindDirDegrees
2013-1-1,46,39,32,34,31,28,93,77,57,30.40,30.34,30.24,10,10,10,23,13,28,0.00,0,,81
2013-1-2,48,40,33,32,29,27,81,68,50,30.26,30.20,30.12,10,10,10,22,12,32,0.00,0,,81
2013-1-3,51,42,33,48,35,27,100,77,54,30.28,30.13,30.07,10,8,2,22,14,33,0.20,5,Rain,125
2013-1-4,51,46,41,46,44,41,100,92,76,30.34,30.25,30.16,10,8,2,13,5,17,0.02,4,Rain,125
2013-1-5,50,46,42,45,42,39,100,93,82,30.21,30.17,30.13,10,9,3,14,6,,0.23,7,Rain,116
2013-1-6,50,44,37,45,42,37,100,93,82,30.25,30.19,30.11,10,7,2,22,4,31,0.09,6,Rain,165
2013-1-7,50,47,44,50,47,45,100,96,87,30.27,30.19,30.08,4,3,0,26,17,37,0.72,8,Rain,213
2013-1-8,50,48,46,50,49,46,100,98,93,30.28,30.16,29.97,4,2,1,26,18,38,0.28,8,Rain,196
2013-1-9,50,44,37,46,39,34,100,84,66,30.05,29.94,29.78,10,6,2,30,15,43,0.58,7,Rain,263
2013-1-10,42,38,33,41,36,34,100,87,70,30.18,30.12,30.03,10,8,3,24,6,32,0.20,7,Rain,9
2013-1-11,42,37,32,36,33,28,100,85,57,30.33,30.26,30.17,10,10,5,13,5,28,0.01,3,Rain,76
2013-1-12,42,37,32,32,30,28,93,84,61,30.41,30.35,30.30,10,10,10,10,7,,0.00,2,,80
2013-1-13,39,34,28,30,28,27,93,84,61,30.50,30.46,30.41,10,10,10,12,7,,0.00,1,,71
2013-1-14,41,34,28,36,31,27,100,87,70,30.57,30.54,30.50,10,9,2,10,5,,0.00,6,,86
2013-1-15,46,40,35,39,35,32,100,88,71,30.67,30.62,30.57,10,9,5,18,6,24,0.00,4,,64
2013-1-16,53,43,33,36,32,28,93,77,51,30.62,30.53,30.42,10,10,10,14,5,,0.00,0,,69
2013-1-17,59,48,37,32,29,28,75,55,34,30.41,30.33,30.25,10,10,10,20,10,25,0.00,0,,81
2013-1-18,53,42,32,43,34,30,100,73,47,30.27,30.24,30.21,10,9,5,13,5,,0.00,0,,83
2013-1-19,44,38,32,41,37,30,100,93,70,30.33,30.29,30.24,10,5,0,8,4,,0.00,4,Fog,93
2013-1-20,53,42,30,41,33,30,100,77,47,30.32,30.27,30.21,10,9,1,12,3,,0.00,0,,71
2013-1-21,55,44,33,41,31,28,81,67,41,30.23,30.16,30.09,10,10,4,15,8,18,0.00,0,,87
2013-1-22,55,45,35,43,32,28,81,66,41,30.11,30.00,29.93,10,10,10,16,11,20,0.00,1,,92
2013-1-23,44,40,35,45,38,32,100,87,66,30.21,30.00,29.89,10,7,1,14,7,17,0.57,7,Rain,91
2013-1-24,51,42,33,46,41,34,100,93,76,30.23,30.16,30.11,10,7,1,15,7,22,0.07,6,Rain,133
2013-1-25,50,46,41,48,45,41,100,96,93,30.16,30.08,30.00,10,4,0,17,12,24,0.34,7,Fog-Rain,199
2013-1-26,48,42,37,43,40,36,100,89,76,30.15,30.04,29.99,10,6,3,16,8,20,0.35,7,Rain,229
2013-1-27,44,38,33,43,40,34,100,94,81,30.21,30.16,30.11,10,7,2,18,5,26,0.48,7,Rain,232
2013-1-28,44,43,42,43,42,37,93,91,76,30.34,30.27,30.17,10,6,2,15,10,24,0.28,8,Rain,299
2013-1-29,46,44,42,45,43,43,100,96,93,30.56,30.48,30.35,7,5,2,16,10,24,0.07,8,Rain,268
2013-1-30,48,46,44,46,45,43,100,99,93,30.56,30.53,30.50,10,4,1,17,9,22,0.37,8,Rain,211
2013-1-31,51,46,42,48,44,41,100,95,76,30.50,30.43,30.38,10,7,1,6,2,,0.01,6,,78